[[{"header":{"parameterUnit":"m.s-1","parameterCategory":1,"la1":30.2991,"la2":30.254,"lo1":-89.0895,"lo2":-89.0444,"dy":0.0017,"dx":0.0017,"nx":28,"ny":28,"refTime":"2024-06-07T21:00:00:Z","depth":0,"parameterNumber":2,"parameterNumberName":"U-component_of_WINDS"},"data":[0,0,0,0,0,0,0,0,0,0,0,0,0,0,0,0,0,0,0,0,0,0,0,0,0,0,0,0,0,0,0,0,0,0,0,0,0,0,0,0,0,0,0,0,0,0,0,0,0,0,0,0,0,0,0,0,0,0,-1.7426,-1.7426,0,-1.7396,-1.7395,-1.7395,-1.732,-1.7319,-1.7317,-1.7316,-1.7285,-1.7286,-1.7287,0,0,0,0,0,0,0,0,0,0,0,0,0,-1.7421,-1.7422,-1.7426,-1.7426,-1.7425,-1.7396,-1.7395,-1.7395,-1.7321,-1.7319,-1.7317,-1.7315,-1.7285,-1.7286,-1.7287,0,0,0,0,0,0,0,0,0,0,0,0,0,-1.7411,-1.7422,-1.7426,-1.7385,-1.7381,-1.7396,-1.7395,-1.7395,-1.7321,-1.7319,-1.7316,-1.7314,-1.7285,-1.7286,-1.7287,-1.734,0,0,-1.729,-1.729,0,0,0,0,0,0,0,0,-1.7411,-1.7411,-1.7391,-1.7388,-1.7383,-1.7359,-1.7383,-1.7377,-1.7322,-1.7344,-1.7316,-1.7313,-1.7312,-1.731,-1.731,-1.7339,-1.7337,-1.729,-1.729,-1.7291,-1.7291,0,0,0,0,0,0,0,-1.7412,-1.7412,-1.7414,-1.7391,-1.7386,-1.7368,-1.7364,-1.7381,-1.7341,-1.7342,-1.7336,-1.7334,-1.7309,-1.7309,-1.7309,-1.7337,-1.729,-1.7291,-1.7291,-1.7292,-1.7408,-1.7411,0,0,0,0,0,0,-1.7419,-1.7413,-1.7415,-1.7413,-1.7392,-1.737,-1.7366,-1.7369,-1.7341,-1.7334,-1.7336,-1.733,-1.7309,-1.7308,-1.7307,-1.7367,-1.7291,-1.7292,-1.7292,-1.7406,-1.7409,-1.7412,0,0,0,0,0,0,-1.7419,-1.742,-1.7416,-1.7412,-1.741,-1.7373,-1.7378,-1.737,-1.737,-1.7336,-1.7329,-1.7343,-1.7307,-1.7306,-1.7333,-1.7365,-1.7292,-1.7293,-1.7403,-1.7407,-1.741,-1.7488,0,0,0,0,0,0,-1.7419,-1.742,-1.7439,-1.7413,-1.741,-1.7441,-1.738,-1.7371,-1.7372,-1.7364,-1.7341,-1.7335,-1.7305,-1.7332,-1.7334,-1.7365,-1.7294,-1.74,-1.7405,-1.7409,-1.7482,-1.7494,-1.7504,0,0,0,0,0,-1.7419,-1.7462,-1.744,-1.7441,-1.7433,-1.7443,-1.7442,-1.7406,-1.7375,-1.7394,-1.7373,-1.7336,-1.7362,-1.7335,-1.7337,-1.7369,-1.7398,-1.7403,-1.7409,-1.7477,-1.7492,-1.7504,0,0,0,0,0,0,-1.7493,-1.7458,-1.7433,-1.7469,-1.746,-1.7431,-1.7453,-1.7423,-1.7422,-1.7415,-1.7371,-1.7367,-1.7399,-1.7387,-1.7358,-1.742,-1.7374,-1.738,-1.7426,-1.7439,-1.745,-1.745,-1.7295,0,0,0,0,0,-1.7514,-1.7524,-1.7493,-1.7528,-1.7525,-1.7491,-1.7493,-1.7467,-1.7456,-1.7451,-1.7432,-1.7423,-1.7429,-1.7434,-1.7438,-1.7482,-1.7475,-1.7505,-1.7516,-1.7525,-1.753,-1.7552,-1.7565,-1.743,-1.743,-1.743,0,0,-1.7556,-1.7538,-1.7547,-1.7542,-1.7532,-1.7544,-1.7487,-1.7503,-1.7511,-1.7454,-1.7477,-1.7463,-1.745,-1.7486,-1.7501,-1.7477,-1.7567,-1.7532,-1.754,-1.754,-1.756,-1.7572,-1.7584,-1.7434,-1.7433,-1.7433,0,0,-1.7638,-1.7627,-1.7654,-1.7645,-1.7631,-1.7608,-1.7615,-1.7592,-1.758,-1.7603,-1.756,-1.7571,-1.7583,-1.7575,-1.7573,-1.7657,-1.7622,-1.766,-1.7715,-1.7737,-1.7748,-1.7757,-1.7786,-1.7796,-1.7665,-1.7666,-1.7666,0,-1.7692,-1.7709,-1.7672,-1.769,-1.7689,-1.7639,-1.7667,-1.766,-1.7648,-1.7649,-1.7623,-1.7637,-1.7625,-1.7658,-1.7679,-1.7679,-1.7686,-1.766,-1.7749,-1.7758,-1.7766,-1.7793,-1.7804,-1.767,-1.767,-1.7669,-1.7669,0,-1.7775,-1.7788,-1.7812,-1.7801,-1.7804,-1.7827,-1.7794,-1.7802,-1.7777,-1.7757,-1.7782,-1.7767,-1.7766,-1.7773,-1.7748,-1.7803,-1.7789,-1.7757,-1.771,-1.7784,-1.7808,-1.7818,-1.7676,-1.7675,-1.7673,-1.7672,0,0,-1.7899,-1.7871,-1.788,-1.7875,-1.7857,-1.7866,-1.7888,-1.7888,-1.7895,-1.789,-1.7907,-1.7919,-1.789,-1.7888,-1.7863,-1.7883,-1.7949,-1.7848,-1.7847,-1.7866,-1.8008,-1.803,-1.8042,-1.7928,-1.793,-1.7931,-1.8008,0,-1.7976,-1.801,-1.7979,-1.8019,-1.803,-1.7985,-1.8004,-1.7996,-1.7979,-1.7987,-1.7969,-1.7978,-1.794,-1.7938,-1.7956,-1.7937,-1.7977,-1.7932,-1.7942,-1.7943,-1.7944,-1.8055,-1.8078,-1.8151,-1.8018,-1.8019,-1.8021,0,-1.8068,-1.8067,-1.8109,-1.8089,-1.8093,-1.811,-1.8109,-1.8117,-1.8107,-1.8094,-1.8093,-1.8063,-1.8084,-1.8041,-1.8068,-1.8039,-1.8042,-1.8034,-1.8036,-1.8033,-1.7984,-1.8053,-1.8174,-1.8184,-1.8035,-1.8034,-1.8033,0,-1.8152,-1.8162,-1.8188,-1.8185,-1.8164,-1.8177,-1.8169,-1.8157,-1.816,-1.816,-1.8161,-1.8163,-1.8164,-1.8167,-1.8138,-1.811,-1.817,-1.8124,-1.8159,-1.816,-1.817,-1.817,-1.8291,-1.8178,-1.8177,-1.8177,-1.8177,0,-1.8238,-1.8265,-1.8225,-1.8241,-1.827,-1.8236,-1.8266,-1.8254,-1.8244,-1.8257,-1.8219,-1.8232,-1.8195,-1.8205,-1.8183,-1.8209,-1.8211,-1.82,-1.8194,-1.8202,-1.8203,-1.8201,-1.8194,-1.818,-1.818,-1.8179,-1.8178,0,-1.8335,-1.831,-1.8335,-1.8314,-1.831,-1.8332,-1.8314,-1.8328,-1.8311,-1.8328,-1.833,-1.8302,-1.8312,-1.8285,-1.8291,-1.8276,-1.8314,-1.83,-1.8316,-1.8311,-1.8347,-1.8343,-1.8469,-1.8483,-1.8363,-1.8364,-1.8365,0,-1.8391,-1.841,-1.8392,-1.8398,-1.8392,-1.8402,-1.8405,-1.8373,-1.8378,-1.837,-1.8385,-1.8392,-1.8395,-1.8413,-1.8394,-1.8398,-1.8383,-1.8427,-1.8383,-1.8391,-1.8381,-1.8379,-1.8381,-1.8435,-1.8436,-1.8438,-1.8439,0,-1.8491,-1.8478,-1.8483,-1.8485,-1.849,-1.849,-1.8487,-1.8495,-1.8461,-1.8469,-1.8478,-1.8481,-1.8487,-1.8494,-1.8495,-1.8487,-1.8457,-1.8454,-1.8461,-1.8468,-1.8476,-1.8471,-1.8338,-1.845,-1.8449,-1.8448,-1.8447,-1.8447,-1.8567,-1.8582,-1.8572,-1.858,-1.8575,-1.8574,-1.8586,-1.8572,-1.8579,-1.8581,-1.8563,-1.8577,-1.8569,-1.8566,-1.8562,-1.8573,-1.8552,-1.8564,-1.8567,-1.8569,-1.8575,-1.8478,-1.8573,-1.8573,-1.8572,-1.8572,-1.8572,0,-1.8663,-1.8655,-1.8663,-1.8661,-1.8668,-1.8641,-1.8638,-1.8645,-1.8657,-1.8652,-1.8657,-1.8669,-1.8676,-1.8659,-1.8664,-1.8676,-1.8662,-1.8678,-1.8675,-1.8674,-1.8593,-1.8585,-1.8689,-1.8689,-1.8689,-1.8689,-1.8689,-1.8688,-1.8714,-1.8739,-1.8725,-1.8748,-1.874,-1.8753,-1.8753,-1.8752,-1.8748,-1.8763,-1.8769,-1.8758,-1.8749,-1.8753,-1.8759,-1.8754,-1.8756,-1.8776,-1.8766,-1.8691,-1.8679,-1.8668,-1.866,-1.8778,-1.8778,-1.8846,-1.8846,-1.8847]},{"header":{"parameterUnit":"m.s-1","parameterCategory":1,"la1":30.2991,"la2":30.254,"lo1":-89.0895,"lo2":-89.0444,"dy":0.0017,"dx":0.0017,"nx":28,"ny":28,"refTime":"2024-06-07T21:00:00:Z","depth":0,"parameterNumber":3,"parameterNumberName":"V-component_of_WINDS"},"data":[0,0,0,0,0,0,0,0,0,0,0,0,0,0,0,0,0,0,0,0,0,0,0,0,0,0,0,0,0,0,0,0,0,0,0,0,0,0,0,0,0,0,0,0,0,0,0,0,0,0,0,0,0,0,0,0,0,0,3.1917,3.1917,0,3.1935,3.1935,3.1936,3.199,3.1991,3.1993,3.1994,3.2007,3.2007,3.2006,0,0,0,0,0,0,0,0,0,0,0,0,0,3.1926,3.1926,3.1917,3.1917,3.1918,3.1935,3.1935,3.1936,3.199,3.1991,3.1993,3.1994,3.2008,3.2007,3.2006,0,0,0,0,0,0,0,0,0,0,0,0,0,3.1931,3.1926,3.1917,3.1947,3.195,3.1935,3.1935,3.1936,3.199,3.1991,3.1993,3.1995,3.2008,3.2007,3.2006,3.1962,0,0,3.2002,3.2002,0,0,0,0,0,0,0,0,3.1931,3.1931,3.1942,3.1945,3.1948,3.1962,3.1944,3.1944,3.1989,3.1974,3.1994,3.1996,3.1991,3.1991,3.199,3.1963,3.1963,3.2002,3.2001,3.2001,3.2,0,0,0,0,0,0,0,3.193,3.193,3.1924,3.1942,3.1946,3.1958,3.1961,3.1944,3.1972,3.1976,3.198,3.1981,3.1992,3.1991,3.1991,3.1963,3.2002,3.2001,3.2,3.2,3.1902,3.1901,0,0,0,0,0,0,3.1926,3.1929,3.1924,3.1925,3.1944,3.1957,3.196,3.1956,3.1972,3.1977,3.198,3.1984,3.1992,3.1992,3.1992,3.1942,3.2001,3.2,3.1999,3.1904,3.1902,3.19,0,0,0,0,0,0,3.1926,3.1925,3.1923,3.1928,3.1929,3.1955,3.195,3.1955,3.1954,3.1975,3.198,3.1974,3.1994,3.1993,3.197,3.1943,3.1999,3.1998,3.1906,3.1904,3.1901,3.1843,0,0,0,0,0,0,3.1926,3.1925,3.1909,3.1928,3.1928,3.1901,3.1948,3.1954,3.1953,3.1958,3.1971,3.1975,3.1995,3.1971,3.1968,3.1943,3.1997,3.1909,3.1905,3.1902,3.1847,3.1838,3.1831,0,0,0,0,0,3.1926,3.1891,3.1908,3.1907,3.191,3.19,3.19,3.1926,3.195,3.1934,3.1948,3.1974,3.1947,3.1968,3.1966,3.1939,3.1911,3.1906,3.1902,3.1851,3.184,3.1831,0,0,0,0,0,0,3.1866,3.1894,3.1913,3.1883,3.1889,3.1909,3.1889,3.1913,3.1911,3.1916,3.1947,3.1949,3.1921,3.1928,3.1951,3.1899,3.1933,3.1928,3.1895,3.1885,3.1877,3.1875,3.1996,0,0,0,0,0,3.185,3.1841,3.1865,3.1835,3.1838,3.1863,3.186,3.1879,3.1886,3.1888,3.1901,3.1905,3.1898,3.1892,3.1886,3.1849,3.1852,3.183,3.1821,3.1815,3.181,3.1791,3.1781,3.1886,3.1886,3.1886,0,0,3.1815,3.1829,3.1821,3.1824,3.1831,3.182,3.1865,3.1851,3.1843,3.1886,3.1865,3.1874,3.1881,3.1851,3.1838,3.1855,3.1782,3.1809,3.1804,3.1802,3.1786,3.1776,3.1767,3.1883,3.1884,3.1884,0,0,3.1746,3.1756,3.1733,3.174,3.1751,3.1768,3.1763,3.178,3.1788,3.1768,3.1801,3.1791,3.1778,3.1782,3.1782,3.1717,3.1741,3.1714,3.1671,3.1652,3.1644,3.1637,3.1613,3.1605,3.1709,3.1709,3.1709,0,3.17,3.1687,3.1717,3.1702,3.1703,3.1744,3.172,3.1725,3.1733,3.1731,3.1752,3.1737,3.1745,3.1716,3.1701,3.1699,3.1694,3.1712,3.1643,3.1636,3.163,3.1608,3.1599,3.1706,3.1706,3.1706,3.1707,0,3.1631,3.1621,3.1601,3.161,3.1608,3.1588,3.1615,3.161,3.163,3.1645,3.1624,3.1635,3.1633,3.1628,3.1647,3.1602,3.1613,3.1638,3.1673,3.1616,3.1596,3.1588,3.1701,3.1702,3.1703,3.1704,0,0,3.1522,3.155,3.1542,3.1547,3.1563,3.1556,3.1538,3.1538,3.1533,3.1537,3.1523,3.1512,3.1536,3.1536,3.1556,3.1539,3.1488,3.1566,3.1567,3.1551,3.144,3.1421,3.141,3.1504,3.1503,3.1502,3.1439,0,3.1457,3.143,3.1458,3.1425,3.1416,3.1456,3.1441,3.1449,3.1463,3.1457,3.1472,3.1464,3.1496,3.1496,3.1482,3.1497,3.1465,3.1502,3.149,3.1489,3.1487,3.14,3.1379,3.132,3.1431,3.143,3.1429,0,3.1376,3.1379,3.1346,3.1366,3.1363,3.1349,3.1352,3.1346,3.1356,3.1367,3.1369,3.1394,3.1378,3.1413,3.1391,3.1415,3.1412,3.1419,3.1417,3.1416,3.1455,3.1396,3.1301,3.1292,3.1417,3.1418,3.1419,0,3.13,3.1296,3.1276,3.1279,3.1302,3.1291,3.13,3.1312,3.131,3.1312,3.1312,3.1311,3.1311,3.1309,3.1333,3.1357,3.1308,3.1346,3.1317,3.1316,3.1303,3.1303,3.1206,3.1302,3.1303,3.1303,3.1303,0,3.1224,3.1202,3.1242,3.123,3.1207,3.1239,3.1215,3.1227,3.1238,3.1228,3.1262,3.1252,3.1285,3.1278,3.1296,3.1276,3.1275,3.1283,3.1288,3.128,3.1278,3.1277,3.1282,3.13,3.1301,3.1301,3.1302,0,3.1134,3.1161,3.1141,3.1166,3.1171,3.1153,3.1173,3.1162,3.1179,3.1166,3.1165,3.1192,3.1186,3.121,3.1207,3.122,3.1189,3.1201,3.1186,3.1189,3.1159,3.1161,3.1057,3.1045,3.1149,3.1148,3.1147,0,3.1083,3.1068,3.1091,3.1088,3.1095,3.1089,3.1089,3.1121,3.1118,3.113,3.1117,3.1114,3.1114,3.1102,3.112,3.1118,3.113,3.1094,3.113,3.1122,3.1129,3.113,3.1129,3.1086,3.1084,3.1083,3.1083,0,3.099,3.1004,3.1003,3.1007,3.1006,3.101,3.1016,3.1011,3.1045,3.1041,3.1036,3.1036,3.1035,3.1031,3.1034,3.1042,3.1067,3.1072,3.1065,3.1055,3.1047,3.1051,3.1165,3.1073,3.1074,3.1075,3.1075,3.1076,3.0918,3.0906,3.0922,3.0919,3.0928,3.0933,3.0925,3.0942,3.0939,3.0942,3.0961,3.0952,3.0964,3.097,3.0976,3.0969,3.0986,3.0976,3.0973,3.097,3.0965,3.1049,3.097,3.097,3.097,3.0971,3.0971,0,3.0826,3.0839,3.0837,3.0845,3.0843,3.0871,3.0879,3.0875,3.0868,3.0877,3.0877,3.0872,3.0869,3.0888,3.0888,3.0879,3.0891,3.0878,3.0878,3.088,3.095,3.0956,3.0868,3.0868,3.0868,3.0868,3.0868,3.0868,3.0778,3.0761,3.0777,3.0764,3.0776,3.077,3.0772,3.0778,3.0785,3.0779,3.0777,3.0791,3.0804,3.0805,3.0804,3.081,3.0808,3.079,3.08,3.0865,3.0875,3.0884,3.089,3.079,3.079,3.073,3.073,3.0729]}]]